ECJCG PAFA-PARC

Flight info

Callsign ECJCG
Flight time 2h 49m
Altitude 3500
Route VFR
Aircraft M7/L-S/C

Departure

Time 2026-04-15 14:09
Airport Fairbanks International Airport (PAFA)

Arrival

Time 2026-04-15 16:59
Airport Arctic Village Airport (PARC)
Time Latitude Longitude Altitude Speed Heading
2026-04-15 13:51 64.80976 -147.85305 427 ft 0 kts 29°
2026-04-15 14:04 64.80980 -147.85300 426 ft 3 kts 28°
2026-04-15 14:05 64.81000 -147.85317 422 ft 6 kts 297°
2026-04-15 14:05 64.80996 -147.85461 416 ft 13 kts 233°
2026-04-15 14:05 64.80930 -147.85601 420 ft 6 kts 218°
2026-04-15 14:05 64.80931 -147.85625 419 ft 3 kts 323°
2026-04-15 14:06 64.80943 -147.85648 424 ft 0 kts 320°
2026-04-15 14:08 64.80944 -147.85649 424 ft 1 kts 320°
2026-04-15 14:08 64.80966 -147.85706 423 ft 9 kts 308°
2026-04-15 14:08 64.81000 -147.85781 419 ft 3 kts 29°
2026-04-15 14:08 64.81011 -147.85760 420 ft 5 kts 39°
2026-04-15 14:09 64.81215 -147.85382 457 ft 64 kts 41°
2026-04-15 14:09 64.81599 -147.84593 700 ft 82 kts 41°
2026-04-15 14:09 64.82092 -147.83634 926 ft 101 kts 40°
2026-04-15 14:09 64.82647 -147.82540 1183 ft 105 kts 41°
2026-04-15 14:10 64.83203 -147.81420 1409 ft 106 kts 40°
2026-04-15 14:10 64.83838 -147.80455 1522 ft 115 kts 26°
2026-04-15 14:10 64.84621 -147.80015 1609 ft 117 kts
2026-04-15 14:10 64.85437 -147.80322 1667 ft 121 kts 342°
2026-04-15 14:11 64.86232 -147.81069 1666 ft 125 kts 344°
2026-04-15 14:11 64.87069 -147.81563 1733 ft 121 kts 347°
2026-04-15 14:11 64.87875 -147.82039 1872 ft 119 kts 347°
2026-04-15 14:11 64.88645 -147.82833 1918 ft 125 kts 319°
2026-04-15 14:12 64.88874 -147.84770 1941 ft 132 kts 261°
2026-04-15 14:12 64.88449 -147.86677 1932 ft 134 kts 229°
2026-04-15 14:12 64.87818 -147.88221 1975 ft 131 kts 226°
2026-04-15 14:12 64.87200 -147.89816 1968 ft 133 kts 229°
2026-04-15 14:13 64.86592 -147.91439 2013 ft 130 kts 227°
2026-04-15 14:13 64.85982 -147.93047 1997 ft 134 kts 228°
2026-04-15 14:13 64.85364 -147.94689 1993 ft 135 kts 228°
2026-04-15 14:13 64.84749 -147.96317 2042 ft 132 kts 228°
2026-04-15 14:14 64.84140 -147.97933 2030 ft 134 kts 228°
2026-04-15 14:14 64.83536 -147.99551 2067 ft 132 kts 228°
2026-04-15 14:14 64.82930 -148.01173 2074 ft 134 kts 228°
2026-04-15 14:14 64.82318 -148.02820 2093 ft 133 kts 227°
2026-04-15 14:15 64.81706 -148.04477 2092 ft 135 kts 229°
2026-04-15 14:15 64.81099 -148.06105 2161 ft 132 kts 228°
2026-04-15 14:15 64.80491 -148.07745 2164 ft 133 kts 228°
2026-04-15 14:15 64.79882 -148.09379 2172 ft 134 kts 227°
2026-04-15 14:16 64.79257 -148.11041 2258 ft 135 kts 227°
2026-04-15 14:16 64.78652 -148.12700 2468 ft 134 kts 228°
2026-04-15 14:16 64.78075 -148.14343 2556 ft 132 kts 228°
2026-04-15 14:16 64.77489 -148.16069 2526 ft 139 kts 230°
2026-04-15 14:17 64.76921 -148.17858 2633 ft 131 kts 234°
2026-04-15 14:17 64.76559 -148.19798 2748 ft 133 kts 248°
2026-04-15 14:17 64.76259 -148.21918 2687 ft 141 kts 256°
2026-04-15 14:17 64.76330 -148.24160 2763 ft 139 kts 288°
2026-04-15 14:18 64.76738 -148.26238 2806 ft 139 kts 296°
2026-04-15 14:18 64.77178 -148.28215 2851 ft 138 kts 306°
2026-04-15 14:18 64.77903 -148.29730 2853 ft 139 kts 336°
2026-04-15 14:18 64.78832 -148.30124 2781 ft 138 kts
2026-04-15 14:19 64.79767 -148.29943 2865 ft 131 kts 10°
2026-04-15 14:19 64.80663 -148.29707 2946 ft 131 kts
2026-04-15 14:19 64.81579 -148.29508 2976 ft 132 kts
2026-04-15 14:19 64.82492 -148.29354 3052 ft 132 kts
2026-04-15 14:20 64.83408 -148.29220 3080 ft 133 kts
2026-04-15 14:20 64.84328 -148.29005 3130 ft 133 kts
2026-04-15 14:20 64.85245 -148.28800 3182 ft 133 kts
2026-04-15 14:20 64.86165 -148.28640 3142 ft 139 kts
2026-04-15 14:21 64.87131 -148.28786 3139 ft 140 kts 347°
2026-04-15 14:21 64.87969 -148.29892 3182 ft 138 kts 320°
2026-04-15 14:21 64.88637 -148.31541 3187 ft 139 kts 308°
2026-04-15 14:21 64.89005 -148.33635 3189 ft 140 kts 278°
2026-04-15 14:22 64.89120 -148.35905 3201 ft 140 kts 274°
2026-04-15 14:22 64.89226 -148.38181 3224 ft 138 kts 273°
2026-04-15 14:22 64.89284 -148.40391 3316 ft 136 kts 271°
2026-04-15 14:22 64.89332 -148.42628 3363 ft 136 kts 271°
2026-04-15 14:23 64.89377 -148.44832 3433 ft 135 kts 270°
2026-04-15 14:23 64.89424 -148.47061 3476 ft 136 kts 271°
2026-04-15 14:23 64.89475 -148.49249 3548 ft 135 kts 271°
2026-04-15 14:23 64.89525 -148.51463 3582 ft 136 kts 270°
2026-04-15 14:24 64.89543 -148.53713 3567 ft 140 kts 271°
2026-04-15 14:24 64.89721 -148.55989 3538 ft 142 kts 285°
2026-04-15 14:24 64.90072 -148.58117 3624 ft 135 kts 290°
2026-04-15 14:24 64.90356 -148.60221 3641 ft 136 kts 284°
2026-04-15 14:25 64.90613 -148.62394 3642 ft 137 kts 284°
2026-04-15 14:25 64.90876 -148.64537 3700 ft 136 kts 285°
2026-04-15 14:25 64.91141 -148.66666 3720 ft 138 kts 285°
2026-04-15 14:25 64.91411 -148.68826 3755 ft 137 kts 285°
2026-04-15 14:26 64.91682 -148.70986 3769 ft 138 kts 285°
2026-04-15 14:26 64.91956 -148.73164 3792 ft 139 kts 285°
2026-04-15 14:26 64.92227 -148.75326 3842 ft 137 kts 285°
2026-04-15 14:26 64.92498 -148.77489 3855 ft 139 kts 285°
2026-04-15 14:27 64.92772 -148.79666 3886 ft 138 kts 285°
2026-04-15 14:27 64.93168 -148.81701 3881 ft 140 kts 312°
2026-04-15 14:27 64.94025 -148.82946 3584 ft 153 kts 337°
2026-04-15 14:27 64.94979 -148.83920 3478 ft 149 kts 337°
2026-04-15 14:28 64.95912 -148.85018 3355 ft 147 kts 335°
2026-04-15 14:28 64.96833 -148.86071 3244 ft 148 kts 335°
2026-04-15 14:28 64.97725 -148.87413 2977 ft 153 kts 324°
2026-04-15 14:28 64.98584 -148.88840 2880 ft 147 kts 328°
2026-04-15 14:29 64.99514 -148.89921 2685 ft 149 kts 341°
2026-04-15 14:29 65.00471 -148.90684 2649 ft 142 kts 349°
2026-04-15 14:29 65.01434 -148.90987 2698 ft 135 kts 355°
2026-04-15 14:29 65.02341 -148.91367 2737 ft 136 kts 350°
2026-04-15 14:30 65.03281 -148.91819 2732 ft 137 kts 351°
2026-04-15 14:30 65.04211 -148.92253 2783 ft 136 kts 351°
2026-04-15 14:30 65.05147 -148.92688 2793 ft 137 kts 351°
2026-04-15 14:30 65.06080 -148.93125 2837 ft 135 kts 352°
2026-04-15 14:31 65.07013 -148.93447 2791 ft 136 kts
2026-04-15 14:31 65.07940 -148.93296 2703 ft 133 kts
2026-04-15 14:31 65.08861 -148.93232 2651 ft 131 kts
2026-04-15 14:31 65.09751 -148.93349 2582 ft 129 kts
2026-04-15 14:32 65.10636 -148.93451 2565 ft 124 kts
2026-04-15 14:32 65.11481 -148.93486 2608 ft 122 kts
2026-04-15 14:32 65.12337 -148.93308 2559 ft 125 kts 12°
2026-04-15 14:32 65.13191 -148.92908 2506 ft 125 kts 17°
2026-04-15 14:33 65.14041 -148.92460 2436 ft 126 kts 14°
2026-04-15 14:33 65.14874 -148.91989 2463 ft 121 kts 17°
2026-04-15 14:33 65.15673 -148.91456 2498 ft 120 kts 18°
2026-04-15 14:33 65.16488 -148.90912 2462 ft 123 kts 17°
2026-04-15 14:34 65.17317 -148.90401 2377 ft 124 kts 17°
2026-04-15 14:34 65.18140 -148.90015 2446 ft 119 kts 11°
2026-04-15 14:34 65.18981 -148.89764 2388 ft 123 kts 10°
2026-04-15 14:34 65.19825 -148.89490 2388 ft 122 kts 11°
2026-04-15 14:35 65.20663 -148.89217 2386 ft 121 kts 10°
2026-04-15 14:35 65.21500 -148.88929 2372 ft 122 kts 11°
2026-04-15 14:35 65.22333 -148.88497 2321 ft 123 kts 21°
2026-04-15 14:35 65.22651 -148.88157 2339 ft 120 kts 30°
2026-04-15 14:36 65.23225 -148.87322 2364 ft 118 kts 33°
2026-04-15 14:36 65.23905 -148.86259 2414 ft 120 kts 37°
2026-04-15 14:36 65.24576 -148.85057 2480 ft 120 kts 37°
2026-04-15 14:36 65.25291 -148.83948 2449 ft 123 kts 35°
2026-04-15 14:37 65.26010 -148.82909 2531 ft 119 kts 31°
2026-04-15 14:37 65.26741 -148.82001 2505 ft 120 kts 30°
2026-04-15 14:37 65.27487 -148.81049 2427 ft 122 kts 31°
2026-04-15 14:37 65.28221 -148.80093 2412 ft 119 kts 31°
2026-04-15 14:38 65.28940 -148.79155 2359 ft 120 kts 31°
2026-04-15 14:38 65.29668 -148.78175 2307 ft 120 kts 31°
2026-04-15 14:38 65.30382 -148.77183 2297 ft 117 kts 32°
2026-04-15 14:38 65.31094 -148.76197 2231 ft 120 kts 30°
2026-04-15 14:39 65.31816 -148.75215 2199 ft 118 kts 30°
2026-04-15 14:39 65.32521 -148.74253 2184 ft 116 kts 30°
2026-04-15 14:39 65.33235 -148.73259 2094 ft 120 kts 30°
2026-04-15 14:39 65.33944 -148.72242 2090 ft 117 kts 31°
2026-04-15 14:40 65.34624 -148.71245 2050 ft 117 kts 31°
2026-04-15 14:40 65.35332 -148.70225 1972 ft 120 kts 30°
2026-04-15 14:40 65.36034 -148.69198 1984 ft 117 kts 31°
2026-04-15 14:40 65.36724 -148.68173 1927 ft 118 kts 30°
2026-04-15 14:41 65.37428 -148.67130 1876 ft 118 kts 30°
2026-04-15 14:41 65.38121 -148.66126 1899 ft 115 kts 29°
2026-04-15 14:41 65.38813 -148.65091 1822 ft 119 kts 32°
2026-04-15 14:41 65.39509 -148.64021 1810 ft 117 kts 29°
2026-04-15 14:42 65.40264 -148.63389 1815 ft 114 kts 10°
2026-04-15 14:42 65.41040 -148.63108 1778 ft 117 kts
2026-04-15 14:42 65.41845 -148.62648 1700 ft 119 kts 15°
2026-04-15 14:42 65.42684 -148.62337 1471 ft 126 kts
2026-04-15 14:43 65.43484 -148.62898 1223 ft 113 kts 328°
2026-04-15 14:43 65.44071 -148.64000 982 ft 105 kts 326°
2026-04-15 14:43 65.44734 -148.64658 744 ft 107 kts 347°
2026-04-15 14:43 65.45479 -148.64979 593 ft 112 kts 353°
2026-04-15 14:44 65.46282 -148.65243 463 ft 120 kts 353°
2026-04-15 14:44 65.47138 -148.65490 621 ft 116 kts 354°
2026-04-15 14:44 65.47891 -148.65609 1019 ft 104 kts 355°
2026-04-15 14:44 65.48591 -148.65529 1323 ft 100 kts
2026-04-15 14:45 65.49186 -148.65984 1664 ft 102 kts 310°
2026-04-15 14:45 65.49482 -148.67747 1742 ft 119 kts 291°
2026-04-15 14:45 65.49692 -148.69646 1978 ft 121 kts 288°
2026-04-15 14:45 65.49909 -148.71672 2081 ft 127 kts 288°
2026-04-15 14:46 65.50148 -148.73683 2232 ft 128 kts 288°
2026-04-15 14:46 65.50244 -148.75821 2312 ft 133 kts 262°
2026-04-15 14:46 65.50017 -148.78037 2266 ft 136 kts 274°
2026-04-15 14:46 65.50499 -148.79921 2134 ft 139 kts 317°
2026-04-15 14:47 65.51137 -148.81648 2079 ft 135 kts 315°
2026-04-15 14:47 65.51750 -148.83350 1998 ft 135 kts 311°
2026-04-15 14:47 65.52484 -148.83417 1917 ft 123 kts 31°
2026-04-15 14:47 65.53094 -148.83912 2116 ft 123 kts 274°
2026-04-15 14:48 65.52715 -148.85796 2167 ft 110 kts 278°
2026-04-15 14:48 65.53298 -148.86725 2166 ft 108 kts 341°
2026-04-15 14:48 65.53825 -148.88051 2166 ft 113 kts 308°
2026-04-15 14:48 65.54438 -148.89256 2158 ft 119 kts 328°
2026-04-15 14:49 65.55165 -148.90335 2113 ft 123 kts 335°
2026-04-15 14:49 65.55919 -148.91308 2080 ft 125 kts 338°
2026-04-15 14:49 65.56655 -148.92089 2170 ft 123 kts 322°
2026-04-15 14:49 65.57312 -148.93539 2062 ft 128 kts 315°
2026-04-15 14:50 65.57777 -148.95232 2187 ft 126 kts 290°
2026-04-15 14:50 65.57806 -148.97405 2142 ft 133 kts 268°
2026-04-15 14:50 65.57691 -148.99604 2186 ft 130 kts 264°
2026-04-15 14:50 65.57571 -149.01757 2229 ft 130 kts 265°
2026-04-15 14:51 65.57512 -149.03946 2242 ft 132 kts 277°
2026-04-15 14:51 65.57813 -149.05934 2347 ft 124 kts 314°
2026-04-15 14:51 65.58562 -149.06797 2273 ft 125 kts 356°
2026-04-15 14:51 65.59390 -149.06338 2330 ft 116 kts 11°
2026-04-15 14:52 65.60193 -149.06497 2329 ft 122 kts 352°
2026-04-15 14:52 65.61042 -149.06776 2328 ft 122 kts 358°
2026-04-15 14:52 65.61831 -149.06174 2322 ft 123 kts 31°
2026-04-15 14:52 65.62381 -149.04646 2251 ft 127 kts 66°
2026-04-15 14:53 65.62737 -149.02994 2564 ft 102 kts 16°
2026-04-15 14:53 65.63521 -149.03338 2371 ft 124 kts 347°
2026-04-15 14:53 65.64363 -149.03902 2310 ft 125 kts 345°
2026-04-15 14:53 65.65170 -149.04530 2402 ft 119 kts 341°
2026-04-15 14:54 65.65940 -149.05223 2425 ft 120 kts 342°
2026-04-15 14:54 65.66743 -149.05918 2399 ft 123 kts 342°
2026-04-15 14:54 65.67530 -149.06613 2464 ft 120 kts 341°
2026-04-15 14:54 65.68324 -149.07298 2433 ft 121 kts 341°
2026-04-15 14:55 65.69105 -149.07975 2422 ft 121 kts 342°
2026-04-15 14:55 65.69907 -149.08671 2429 ft 121 kts 341°
2026-04-15 14:55 65.70689 -149.09374 2456 ft 121 kts 341°
2026-04-15 14:55 65.71484 -149.10080 2437 ft 122 kts 341°
2026-04-15 14:56 65.72282 -149.10771 2449 ft 121 kts 342°
2026-04-15 14:56 65.73069 -149.11461 2483 ft 119 kts 341°
2026-04-15 14:56 65.73858 -149.12175 2452 ft 122 kts 341°
2026-04-15 14:56 65.74652 -149.12905 2455 ft 121 kts 341°
2026-04-15 14:57 65.75431 -149.13651 2483 ft 124 kts 341°
2026-04-15 14:57 65.76215 -149.14611 2467 ft 127 kts 341°
2026-04-15 14:57 65.77003 -149.15450 2571 ft 122 kts 344°
2026-04-15 14:57 65.77802 -149.16318 2503 ft 128 kts 340°
2026-04-15 14:58 65.78591 -149.17209 2551 ft 125 kts 341°
2026-04-15 14:58 65.79382 -149.18180 2557 ft 126 kts 343°
2026-04-15 14:58 65.80193 -149.18899 2636 ft 124 kts 342°
2026-04-15 14:58 65.80989 -149.19828 2610 ft 127 kts 345°
2026-04-15 14:59 65.81799 -149.20510 2661 ft 124 kts 347°
2026-04-15 14:59 65.82631 -149.21230 2628 ft 127 kts 346°
2026-04-15 14:59 65.83451 -149.21989 2654 ft 125 kts 344°
2026-04-15 14:59 65.84266 -149.22771 2604 ft 128 kts 346°
2026-04-15 15:00 65.85051 -149.23825 2643 ft 127 kts 328°
2026-04-15 15:00 65.85802 -149.24995 2240 ft 130 kts 351°
2026-04-15 15:00 65.86702 -149.25194 2020 ft 127 kts
2026-04-15 15:00 65.87528 -149.25167 2010 ft 113 kts
2026-04-15 15:01 65.88321 -149.25103 1838 ft 119 kts
2026-04-15 15:01 65.89124 -149.25044 1958 ft 109 kts
2026-04-15 15:01 65.89904 -149.25070 1922 ft 114 kts
2026-04-15 15:01 65.90680 -149.25139 2021 ft 115 kts
2026-04-15 15:02 65.91498 -149.25021 2082 ft 112 kts
2026-04-15 15:02 65.92263 -149.25072 2263 ft 114 kts
2026-04-15 15:02 65.93074 -149.25077 2325 ft 115 kts
2026-04-15 15:02 65.93871 -149.25056 2369 ft 117 kts
2026-04-15 15:03 65.94677 -149.25029 2410 ft 115 kts
2026-04-15 15:03 65.95479 -149.24994 2433 ft 117 kts
2026-04-15 15:03 65.96293 -149.24928 2456 ft 116 kts
2026-04-15 15:03 65.97104 -149.24883 2496 ft 117 kts
2026-04-15 15:04 65.97915 -149.24777 2574 ft 112 kts 19°
2026-04-15 15:04 65.98503 -149.23500 2389 ft 120 kts 58°
2026-04-15 15:04 65.98883 -149.21735 2449 ft 111 kts 65°
2026-04-15 15:04 65.99160 -149.20033 2555 ft 109 kts 69°
2026-04-15 15:05 65.99445 -149.18258 2529 ft 112 kts 67°
2026-04-15 15:05 65.99731 -149.16536 2644 ft 107 kts 67°
2026-04-15 15:05 66.00024 -149.14807 2625 ft 113 kts 67°
2026-04-15 15:05 66.00326 -149.13064 2684 ft 110 kts 67°
2026-04-15 15:06 66.00923 -149.09635 2747 ft 108 kts 67°
2026-04-15 15:06 66.01222 -149.07908 2736 ft 113 kts 67°
2026-04-15 15:06 66.01533 -149.06142 2769 ft 112 kts 67°
2026-04-15 15:07 66.01839 -149.04391 2815 ft 111 kts 67°
2026-04-15 15:07 66.02144 -149.02675 2837 ft 111 kts 67°
2026-04-15 15:07 66.02459 -149.00926 2849 ft 112 kts 67°
2026-04-15 15:07 66.02770 -148.99158 2860 ft 114 kts 67°
2026-04-15 15:08 66.03087 -148.97402 2920 ft 111 kts 66°
2026-04-15 15:08 66.03403 -148.95668 2934 ft 112 kts 68°
2026-04-15 15:08 66.03727 -148.93906 2957 ft 112 kts 67°
2026-04-15 15:08 66.04052 -148.92148 2955 ft 115 kts 66°
2026-04-15 15:09 66.04373 -148.90412 3015 ft 111 kts 67°
2026-04-15 15:09 66.04692 -148.88680 3033 ft 112 kts 66°
2026-04-15 15:09 66.05023 -148.86917 3023 ft 114 kts 67°
2026-04-15 15:09 66.05354 -148.85145 3048 ft 113 kts 66°
2026-04-15 15:10 66.05683 -148.83417 3099 ft 108 kts 68°
2026-04-15 15:10 66.06006 -148.81782 3158 ft 108 kts 67°
2026-04-15 15:10 66.06354 -148.80113 3145 ft 109 kts 67°
2026-04-15 15:10 66.06691 -148.78460 3182 ft 109 kts 67°
2026-04-15 15:11 66.07035 -148.76810 3164 ft 110 kts 65°
2026-04-15 15:11 66.07427 -148.75190 3140 ft 113 kts 59°
2026-04-15 15:11 66.07915 -148.73613 3024 ft 116 kts 57°
2026-04-15 15:11 66.08414 -148.72068 2929 ft 117 kts 53°
2026-04-15 15:12 66.08981 -148.70621 2819 ft 116 kts 52°
2026-04-15 15:12 66.09582 -148.69379 2900 ft 107 kts 44°
2026-04-15 15:12 66.10146 -148.68183 2904 ft 110 kts 50°
2026-04-15 15:12 66.10703 -148.66869 2916 ft 109 kts 50°
2026-04-15 15:13 66.11255 -148.65616 2943 ft 109 kts 49°
2026-04-15 15:13 66.11803 -148.64341 2921 ft 110 kts 50°
2026-04-15 15:13 66.12360 -148.63045 2936 ft 110 kts 50°
2026-04-15 15:13 66.12913 -148.61762 2965 ft 109 kts 50°
2026-04-15 15:14 66.13473 -148.60482 2953 ft 111 kts 49°
2026-04-15 15:14 66.14036 -148.59182 2967 ft 110 kts 50°
2026-04-15 15:14 66.14588 -148.57896 3004 ft 109 kts 49°
2026-04-15 15:14 66.15146 -148.56610 3027 ft 112 kts 49°
2026-04-15 15:15 66.15708 -148.55314 3133 ft 110 kts 49°
2026-04-15 15:15 66.16274 -148.54003 3217 ft 112 kts 50°
2026-04-15 15:15 66.16841 -148.52665 3280 ft 114 kts 49°
2026-04-15 15:15 66.17414 -148.51322 3362 ft 113 kts 49°
2026-04-15 15:16 66.17859 -148.49795 3419 ft 112 kts 66°
2026-04-15 15:16 66.18263 -148.48105 3437 ft 115 kts 61°
2026-04-15 15:16 66.18673 -148.46315 3280 ft 122 kts 66°
2026-04-15 15:16 66.19062 -148.44469 3234 ft 118 kts 65°
2026-04-15 15:17 66.19403 -148.42630 3073 ft 122 kts 69°
2026-04-15 15:17 66.19791 -148.40767 2976 ft 119 kts 65°
2026-04-15 15:17 66.20192 -148.38993 2905 ft 118 kts 65°
2026-04-15 15:17 66.20587 -148.37201 2816 ft 118 kts 65°
2026-04-15 15:18 66.20977 -148.35445 2766 ft 116 kts 65°
2026-04-15 15:18 66.21370 -148.33694 2679 ft 117 kts 65°
2026-04-15 15:18 66.21764 -148.31956 2613 ft 115 kts 65°
2026-04-15 15:18 66.22148 -148.30218 2529 ft 115 kts 65°
2026-04-15 15:19 66.22521 -148.28464 2452 ft 115 kts 65°
2026-04-15 15:19 66.22902 -148.26765 2405 ft 114 kts 64°
2026-04-15 15:19 66.23288 -148.25034 2329 ft 114 kts 64°
2026-04-15 15:19 66.23657 -148.23297 2268 ft 114 kts 65°
2026-04-15 15:20 66.23934 -148.21488 2213 ft 113 kts 75°
2026-04-15 15:20 66.24163 -148.19566 2072 ft 115 kts 74°
2026-04-15 15:20 66.24393 -148.17735 2074 ft 110 kts 71°
2026-04-15 15:20 66.24639 -148.15879 1926 ft 114 kts 72°
2026-04-15 15:21 66.24892 -148.14060 1839 ft 112 kts 69°
2026-04-15 15:21 66.25101 -148.12271 1848 ft 107 kts 75°
2026-04-15 15:21 66.25276 -148.10494 1834 ft 106 kts 73°
2026-04-15 15:21 66.25443 -148.08698 1783 ft 108 kts 75°
2026-04-15 15:22 66.25594 -148.06876 1709 ft 109 kts 75°
2026-04-15 15:22 66.25785 -148.04959 1525 ft 114 kts 74°
2026-04-15 15:22 66.25967 -148.03123 1618 ft 106 kts 74°
2026-04-15 15:22 66.26148 -148.01358 1610 ft 106 kts 73°
2026-04-15 15:23 66.26262 -147.99586 1606 ft 108 kts 83°
2026-04-15 15:23 66.26301 -147.97668 1464 ft 113 kts 81°
2026-04-15 15:23 66.26392 -147.95692 1290 ft 116 kts 83°
2026-04-15 15:23 66.26507 -147.93781 1306 ft 109 kts 78°
2026-04-15 15:24 66.26615 -147.91956 1283 ft 105 kts 82°
2026-04-15 15:24 66.26730 -147.90203 1326 ft 100 kts 77°
2026-04-15 15:24 66.26879 -147.88418 1174 ft 105 kts 77°
2026-04-15 15:24 66.27046 -147.86709 1203 ft 100 kts 78°
2026-04-15 15:25 66.27160 -147.85036 1245 ft 97 kts 78°
2026-04-15 15:25 66.27313 -147.83391 1241 ft 99 kts 74°
2026-04-15 15:25 66.27530 -147.81786 1228 ft 99 kts 71°
2026-04-15 15:25 66.27734 -147.80167 1299 ft 94 kts 74°
2026-04-15 15:26 66.27868 -147.78585 1343 ft 95 kts 83°
2026-04-15 15:26 66.27980 -147.77022 1503 ft 87 kts 69°
2026-04-15 15:26 66.28342 -147.75960 1760 ft 81 kts 50°
2026-04-15 15:26 66.28775 -147.74986 1838 ft 85 kts 53°
2026-04-15 15:27 66.29161 -147.73826 1891 ft 90 kts 54°
2026-04-15 15:27 66.29585 -147.72607 1877 ft 94 kts 54°
2026-04-15 15:27 66.30011 -147.71360 1909 ft 91 kts 56°
2026-04-15 15:27 66.30370 -147.70083 1922 ft 92 kts 63°
2026-04-15 15:28 66.30700 -147.68721 1976 ft 92 kts 64°
2026-04-15 15:28 66.31010 -147.67321 1993 ft 94 kts 64°
2026-04-15 15:28 66.31331 -147.65896 1988 ft 95 kts 65°
2026-04-15 15:28 66.31668 -147.64441 1915 ft 98 kts 62°
2026-04-15 15:29 66.32056 -147.62999 1785 ft 102 kts 60°
2026-04-15 15:29 66.32420 -147.61516 1719 ft 99 kts 67°
2026-04-15 15:29 66.32642 -147.59908 1650 ft 99 kts 74°
2026-04-15 15:29 66.32835 -147.58265 1590 ft 99 kts 73°
2026-04-15 15:30 66.33035 -147.56710 1666 ft 91 kts 71°
2026-04-15 15:30 66.33268 -147.55295 1754 ft 87 kts 70°
2026-04-15 15:30 66.33492 -147.53848 1755 ft 91 kts 67°
2026-04-15 15:30 66.33707 -147.52372 1778 ft 93 kts 76°
2026-04-15 15:31 66.33924 -147.50849 1741 ft 98 kts 64°
2026-04-15 15:31 66.34376 -147.49545 1509 ft 102 kts 46°
2026-04-15 15:31 66.34931 -147.48428 1193 ft 101 kts 44°
2026-04-15 15:31 66.35399 -147.47079 898 ft 109 kts 63°
2026-04-15 15:32 66.35613 -147.45384 710 ft 95 kts 78°
2026-04-15 15:32 66.35921 -147.43749 631 ft 114 kts 68°
2026-04-15 15:32 66.36080 -147.41718 414 ft 110 kts 73°
2026-04-15 15:32 66.36304 -147.39977 444 ft 111 kts 72°
2026-04-15 15:33 66.36542 -147.38180 744 ft 105 kts 70°
2026-04-15 15:33 66.36651 -147.36427 1013 ft 104 kts 102°
2026-04-15 15:33 66.36385 -147.34728 1343 ft 103 kts 107°
2026-04-15 15:33 66.36226 -147.33010 1572 ft 104 kts 82°
2026-04-15 15:34 66.36387 -147.31233 1679 ft 109 kts 69°
2026-04-15 15:34 66.36812 -147.29663 1777 ft 111 kts 56°
2026-04-15 15:34 66.37244 -147.28095 1932 ft 107 kts 61°
2026-04-15 15:34 66.37647 -147.26531 2062 ft 109 kts 60°
2026-04-15 15:35 66.38077 -147.24970 2189 ft 108 kts 61°
2026-04-15 15:35 66.38472 -147.23367 2278 ft 111 kts 63°
2026-04-15 15:35 66.38894 -147.21729 2352 ft 111 kts 61°
2026-04-15 15:35 66.39318 -147.20130 2476 ft 111 kts 61°
2026-04-15 15:36 66.39750 -147.18509 2537 ft 113 kts 61°
2026-04-15 15:36 66.40196 -147.16900 2624 ft 112 kts 60°
2026-04-15 15:36 66.40634 -147.15310 2692 ft 114 kts 60°
2026-04-15 15:36 66.41082 -147.13678 2761 ft 114 kts 60°
2026-04-15 15:37 66.41532 -147.12035 2794 ft 115 kts 59°
2026-04-15 15:37 66.41963 -147.10341 2846 ft 116 kts 61°
2026-04-15 15:37 66.42386 -147.08657 2950 ft 114 kts 61°
2026-04-15 15:37 66.42811 -147.06974 2967 ft 116 kts 61°
2026-04-15 15:38 66.43239 -147.05262 3022 ft 116 kts 61°
2026-04-15 15:38 66.43664 -147.03555 3069 ft 116 kts 61°
2026-04-15 15:38 66.44086 -147.01860 3125 ft 116 kts 61°
2026-04-15 15:38 66.44512 -147.00138 3161 ft 118 kts 61°
2026-04-15 15:39 66.44937 -146.98398 3223 ft 117 kts 62°
2026-04-15 15:39 66.45366 -146.96670 3260 ft 118 kts 61°
2026-04-15 15:39 66.45803 -146.94929 3318 ft 117 kts 60°
2026-04-15 15:39 66.46243 -146.93204 3355 ft 119 kts 60°
2026-04-15 15:40 66.46691 -146.91464 3396 ft 118 kts 61°
2026-04-15 15:40 66.47117 -146.89759 3456 ft 117 kts 61°
2026-04-15 15:40 66.47534 -146.87980 3459 ft 120 kts 62°
2026-04-15 15:40 66.47953 -146.86189 3513 ft 118 kts 62°
2026-04-15 15:41 66.48387 -146.84441 3549 ft 118 kts 61°
2026-04-15 15:41 66.48837 -146.82711 3557 ft 120 kts 60°
2026-04-15 15:41 66.49287 -146.80960 3582 ft 120 kts 61°
2026-04-15 15:41 66.49731 -146.79197 3610 ft 120 kts 60°
2026-04-15 15:42 66.50180 -146.77456 3652 ft 119 kts 60°
2026-04-15 15:42 66.50626 -146.75683 3656 ft 121 kts 61°
2026-04-15 15:42 66.51073 -146.73901 3701 ft 119 kts 60°
2026-04-15 15:42 66.51512 -146.72191 3733 ft 118 kts 61°
2026-04-15 15:43 66.51967 -146.70430 3703 ft 122 kts 61°
2026-04-15 15:43 66.52417 -146.68650 3754 ft 119 kts 61°
2026-04-15 15:43 66.52812 -146.66842 3777 ft 118 kts 73°
2026-04-15 15:43 66.53074 -146.64860 3751 ft 121 kts 71°
2026-04-15 15:44 66.53394 -146.62926 3799 ft 120 kts 70°
2026-04-15 15:44 66.53717 -146.60996 3830 ft 121 kts 70°
2026-04-15 15:44 66.54034 -146.59061 3850 ft 119 kts 70°
2026-04-15 15:44 66.54358 -146.57120 3829 ft 122 kts 69°
2026-04-15 15:45 66.54678 -146.55155 3818 ft 123 kts 70°
2026-04-15 15:45 66.54994 -146.53215 3875 ft 120 kts 70°
2026-04-15 15:45 66.55323 -146.51283 3866 ft 121 kts 69°
2026-04-15 15:45 66.55653 -146.49323 3857 ft 122 kts 70°
2026-04-15 15:46 66.55978 -146.47333 3846 ft 122 kts 70°
2026-04-15 15:46 66.56292 -146.45393 3886 ft 118 kts 71°
2026-04-15 15:46 66.56614 -146.43463 3843 ft 123 kts 70°
2026-04-15 15:46 66.56936 -146.41480 3832 ft 122 kts 70°
2026-04-15 15:47 66.57250 -146.39566 3869 ft 120 kts 70°
2026-04-15 15:47 66.57573 -146.37620 3850 ft 120 kts 70°
2026-04-15 15:47 66.57898 -146.35680 3848 ft 121 kts 70°
2026-04-15 15:47 66.58212 -146.33656 3738 ft 129 kts 75°
2026-04-15 15:48 66.58456 -146.31543 3826 ft 121 kts 73°
2026-04-15 15:48 66.58768 -146.29577 3872 ft 122 kts 70°
2026-04-15 15:48 66.59088 -146.27579 3916 ft 123 kts 71°
2026-04-15 15:48 66.59399 -146.25577 3970 ft 122 kts 70°
2026-04-15 15:49 66.59719 -146.23650 4036 ft 120 kts 69°
2026-04-15 15:49 66.60018 -146.21699 4081 ft 122 kts 73°
2026-04-15 15:49 66.60265 -146.19648 4090 ft 124 kts 72°
2026-04-15 15:49 66.60557 -146.17622 4157 ft 121 kts 70°
2026-04-15 15:50 66.60851 -146.15627 4194 ft 121 kts 71°
2026-04-15 15:50 66.61145 -146.13637 4211 ft 124 kts 71°
2026-04-15 15:50 66.61444 -146.11595 4211 ft 126 kts 71°
2026-04-15 15:50 66.61750 -146.09547 4235 ft 125 kts 70°
2026-04-15 15:51 66.62219 -146.07671 4043 ft 135 kts 44°
2026-04-15 15:51 66.63066 -146.06693 3865 ft 131 kts 15°
2026-04-15 15:51 66.63953 -146.06492 3652 ft 126 kts 11°
2026-04-15 15:51 66.64818 -146.06237 3392 ft 127 kts 15°
2026-04-15 15:52 66.65683 -146.05888 3162 ft 124 kts 18°
2026-04-15 15:52 66.66529 -146.05585 2964 ft 123 kts 15°
2026-04-15 15:52 66.67376 -146.05308 2771 ft 122 kts 15°
2026-04-15 15:52 66.68214 -146.04930 2556 ft 124 kts 14°
2026-04-15 15:53 66.69046 -146.04711 2432 ft 120 kts 11°
2026-04-15 15:53 66.69874 -146.04525 2328 ft 118 kts 12°
2026-04-15 15:53 66.70689 -146.04340 2223 ft 116 kts 13°
2026-04-15 15:53 66.71480 -146.04119 2217 ft 111 kts 15°
2026-04-15 15:54 66.72245 -146.03885 2163 ft 112 kts 15°
2026-04-15 15:54 66.73016 -146.03686 2171 ft 109 kts 14°
2026-04-15 15:54 66.73778 -146.03519 2138 ft 111 kts 14°
2026-04-15 15:54 66.74547 -146.03330 2116 ft 112 kts
2026-04-15 15:55 66.75324 -146.03442 2095 ft 114 kts
2026-04-15 15:55 66.76089 -146.03915 2092 ft 115 kts 351°
2026-04-15 15:55 66.76835 -146.04715 2060 ft 117 kts 345°
2026-04-15 15:55 66.77561 -146.05660 2074 ft 117 kts 339°
2026-04-15 15:56 66.78247 -146.06790 2072 ft 119 kts 336°
2026-04-15 15:56 66.78948 -146.07905 2042 ft 118 kts 338°
2026-04-15 15:56 66.79650 -146.08932 2074 ft 115 kts 339°
2026-04-15 15:56 66.80341 -146.09950 2088 ft 115 kts 339°
2026-04-15 15:57 66.81021 -146.11015 2092 ft 117 kts 338°
2026-04-15 15:57 66.81705 -146.12108 2138 ft 115 kts 335°
2026-04-15 15:57 66.82344 -146.13340 2190 ft 116 kts 330°
2026-04-15 15:57 66.82969 -146.14698 2176 ft 120 kts 329°
2026-04-15 15:58 66.83606 -146.16085 2187 ft 119 kts 328°
2026-04-15 15:58 66.84254 -146.17359 2200 ft 120 kts 333°
2026-04-15 15:58 66.84925 -146.18615 2203 ft 120 kts 334°
2026-04-15 15:58 66.85593 -146.19836 2254 ft 118 kts 335°
2026-04-15 15:59 66.86265 -146.21041 2265 ft 119 kts 334°
2026-04-15 15:59 66.86965 -146.22287 2107 ft 124 kts 339°
2026-04-15 15:59 66.87748 -146.22942 1979 ft 120 kts 347°
2026-04-15 15:59 66.88461 -146.24084 1924 ft 122 kts 331°
2026-04-15 16:00 66.89122 -146.25449 1877 ft 122 kts 327°
2026-04-15 16:00 66.89750 -146.26798 1970 ft 116 kts 330°
2026-04-15 16:00 66.90374 -146.28065 2040 ft 115 kts 331°
2026-04-15 16:00 66.91147 -146.28610 2009 ft 123 kts
2026-04-15 16:01 66.92020 -146.29069 1977 ft 132 kts 347°
2026-04-15 16:01 66.92814 -146.30070 2038 ft 124 kts 339°
2026-04-15 16:01 66.93526 -146.31269 2119 ft 120 kts 335°
2026-04-15 16:01 66.94189 -146.32468 2210 ft 118 kts 333°
2026-04-15 16:02 66.94853 -146.33726 2244 ft 120 kts 332°
2026-04-15 16:02 66.95536 -146.35004 2221 ft 123 kts 334°
2026-04-15 16:02 66.96242 -146.36258 2209 ft 122 kts 335°
2026-04-15 16:02 66.96941 -146.37437 2240 ft 119 kts 337°
2026-04-15 16:03 66.97641 -146.38556 2281 ft 118 kts 337°
2026-04-15 16:03 66.98342 -146.39715 2315 ft 122 kts 337°
2026-04-15 16:03 66.99060 -146.40952 2372 ft 121 kts 335°
2026-04-15 16:03 66.99749 -146.42149 2499 ft 120 kts 334°
2026-04-15 16:04 67.00334 -146.43771 2474 ft 133 kts 311°
2026-04-15 16:04 67.00727 -146.45945 2527 ft 136 kts 294°
2026-04-15 16:04 67.00969 -146.48047 2927 ft 116 kts 289°
2026-04-15 16:04 67.01221 -146.50108 2984 ft 125 kts 303°
2026-04-15 16:05 67.01636 -146.52176 2922 ft 137 kts 298°
2026-04-15 16:05 67.01941 -146.54528 2904 ft 140 kts 289°
2026-04-15 16:05 67.02194 -146.56867 3012 ft 134 kts 289°
2026-04-15 16:05 67.02408 -146.59218 3005 ft 139 kts 285°
2026-04-15 16:06 67.02598 -146.61679 2930 ft 140 kts 285°
2026-04-15 16:06 67.02816 -146.64051 2862 ft 138 kts 287°
2026-04-15 16:06 67.03031 -146.66455 2773 ft 139 kts 285°
2026-04-15 16:06 67.03233 -146.68849 2736 ft 137 kts 286°
2026-04-15 16:07 67.03436 -146.71192 2756 ft 134 kts 287°
2026-04-15 16:07 67.03645 -146.73523 2740 ft 135 kts 288°
2026-04-15 16:07 67.04119 -146.78188 2691 ft 136 kts 289°
2026-04-15 16:08 67.04357 -146.80546 2622 ft 136 kts 290°
2026-04-15 16:08 67.04633 -146.82812 2671 ft 131 kts 293°
2026-04-15 16:08 67.04917 -146.85009 2683 ft 132 kts 293°
2026-04-15 16:08 67.05217 -146.87220 2676 ft 133 kts 294°
2026-04-15 16:09 67.05527 -146.89471 2660 ft 134 kts 295°
2026-04-15 16:09 67.05854 -146.91711 2601 ft 135 kts 296°
2026-04-15 16:09 67.06187 -146.93962 2539 ft 135 kts 295°
2026-04-15 16:09 67.06495 -146.96234 2497 ft 135 kts 294°
2026-04-15 16:10 67.06809 -146.98460 2533 ft 133 kts 295°
2026-04-15 16:10 67.07116 -147.00705 2545 ft 133 kts 294°
2026-04-15 16:10 67.07433 -147.02879 2575 ft 130 kts 295°
2026-04-15 16:10 67.07744 -147.05076 2562 ft 131 kts 295°
2026-04-15 16:11 67.08050 -147.07246 2512 ft 133 kts 293°
2026-04-15 16:11 67.08337 -147.09478 2512 ft 130 kts 292°
2026-04-15 16:11 67.08637 -147.11678 2452 ft 131 kts 294°
2026-04-15 16:11 67.08953 -147.13923 2340 ft 135 kts 294°
2026-04-15 16:12 67.09334 -147.16048 2437 ft 131 kts 302°
2026-04-15 16:12 67.09822 -147.18059 2420 ft 132 kts 309°
2026-04-15 16:12 67.10401 -147.19804 2397 ft 125 kts 323°
2026-04-15 16:12 67.11035 -147.21249 2507 ft 120 kts 326°
2026-04-15 16:13 67.11660 -147.22617 2564 ft 120 kts 322°
2026-04-15 16:13 67.12239 -147.24222 2572 ft 122 kts 319°
2026-04-15 16:13 67.12860 -147.25514 2712 ft 111 kts 343°
2026-04-15 16:13 67.13586 -147.26071 2715 ft 111 kts 355°
2026-04-15 16:14 67.14374 -147.26413 2637 ft 116 kts 353°
2026-04-15 16:14 67.15183 -147.26844 2404 ft 121 kts 355°
2026-04-15 16:14 67.16013 -147.26476 2084 ft 122 kts 24°
2026-04-15 16:14 67.16787 -147.25704 1959 ft 119 kts 21°
2026-04-15 16:15 67.17558 -147.25028 1905 ft 116 kts 25°
2026-04-15 16:15 67.18287 -147.24214 1877 ft 115 kts 24°
2026-04-15 16:15 67.19035 -147.23462 1772 ft 117 kts 25°
2026-04-15 16:15 67.19801 -147.22598 1743 ft 124 kts 22°
2026-04-15 16:16 67.20602 -147.21779 1752 ft 125 kts 24°
2026-04-15 16:16 67.21295 -147.20492 1804 ft 121 kts 47°
2026-04-15 16:16 67.21869 -147.18856 1857 ft 123 kts 46°
2026-04-15 16:16 67.22458 -147.17252 1909 ft 125 kts 46°
2026-04-15 16:17 67.23059 -147.15722 2047 ft 120 kts 44°
2026-04-15 16:17 67.23669 -147.14220 2029 ft 126 kts 43°
2026-04-15 16:17 67.24347 -147.12781 2000 ft 124 kts 35°
2026-04-15 16:17 67.25054 -147.11550 1925 ft 123 kts 35°
2026-04-15 16:18 67.25735 -147.10279 1972 ft 117 kts 34°
2026-04-15 16:18 67.26399 -147.09040 1968 ft 118 kts 38°
2026-04-15 16:18 67.26987 -147.07645 2192 ft 106 kts 44°
2026-04-15 16:18 67.27532 -147.06279 2235 ft 115 kts 43°
2026-04-15 16:19 67.28123 -147.04858 2197 ft 118 kts 42°
2026-04-15 16:19 67.28664 -147.03277 2203 ft 118 kts 52°
2026-04-15 16:19 67.29088 -147.01420 2123 ft 122 kts 60°
2026-04-15 16:19 67.29453 -146.99384 1987 ft 126 kts 66°
2026-04-15 16:20 67.29716 -146.97237 1924 ft 124 kts 73°
2026-04-15 16:20 67.29944 -146.95062 1847 ft 126 kts 74°
2026-04-15 16:20 67.30155 -146.92897 1818 ft 123 kts 73°
2026-04-15 16:20 67.30367 -146.90781 1803 ft 121 kts 74°
2026-04-15 16:21 67.30590 -146.88697 1762 ft 121 kts 68°
2026-04-15 16:21 67.30904 -146.86715 1805 ft 117 kts 65°
2026-04-15 16:21 67.31234 -146.84773 1839 ft 115 kts 63°
2026-04-15 16:21 67.31666 -146.83028 1874 ft 115 kts 51°
2026-04-15 16:22 67.32196 -146.81582 1992 ft 109 kts 39°
2026-04-15 16:22 67.32789 -146.80369 2122 ft 106 kts 38°
2026-04-15 16:22 67.33344 -146.79125 2176 ft 107 kts 42°
2026-04-15 16:22 67.33893 -146.77771 2149 ft 110 kts 43°
2026-04-15 16:23 67.34445 -146.76444 2181 ft 109 kts 42°
2026-04-15 16:23 67.35005 -146.75133 2184 ft 110 kts 42°
2026-04-15 16:23 67.35557 -146.73845 2256 ft 107 kts 41°
2026-04-15 16:23 67.36123 -146.72571 2263 ft 109 kts 40°
2026-04-15 16:24 67.36696 -146.71325 2355 ft 104 kts 39°
2026-04-15 16:24 67.37258 -146.70203 2475 ft 102 kts 37°
2026-04-15 16:24 67.37830 -146.69051 2533 ft 106 kts 40°
2026-04-15 16:24 67.38419 -146.67876 2558 ft 108 kts 36°
2026-04-15 16:25 67.39041 -146.66728 2521 ft 110 kts 36°
2026-04-15 16:25 67.39657 -146.65579 2535 ft 109 kts 35°
2026-04-15 16:25 67.40256 -146.64414 2566 ft 109 kts 38°
2026-04-15 16:25 67.40855 -146.63225 2587 ft 109 kts 38°
2026-04-15 16:26 67.41455 -146.62025 2587 ft 110 kts 39°
2026-04-15 16:26 67.42044 -146.60770 2606 ft 109 kts 40°
2026-04-15 16:26 67.42649 -146.59453 2597 ft 117 kts 40°
2026-04-15 16:26 67.43287 -146.58084 2552 ft 119 kts 39°
2026-04-15 16:27 67.43927 -146.56700 2474 ft 122 kts 42°
2026-04-15 16:27 67.44515 -146.55116 2341 ft 121 kts 51°
2026-04-15 16:27 67.44909 -146.53173 2300 ft 123 kts 66°
2026-04-15 16:27 67.45255 -146.51120 2230 ft 126 kts 67°
2026-04-15 16:28 67.45578 -146.49005 2076 ft 130 kts 66°
2026-04-15 16:28 67.45933 -146.46866 1965 ft 127 kts 64°
2026-04-15 16:28 67.46267 -146.44895 2011 ft 114 kts 63°
2026-04-15 16:28 67.46610 -146.43086 2047 ft 111 kts 60°
2026-04-15 16:29 67.46928 -146.41275 2065 ft 111 kts 63°
2026-04-15 16:29 67.47233 -146.39445 2099 ft 110 kts 66°
2026-04-15 16:29 67.47505 -146.37551 2077 ft 112 kts 67°
2026-04-15 16:29 67.47763 -146.35633 2089 ft 110 kts 68°
2026-04-15 16:30 67.48020 -146.33747 2093 ft 111 kts 67°
2026-04-15 16:30 67.48278 -146.31846 2111 ft 109 kts 67°
2026-04-15 16:30 67.48534 -146.30049 2190 ft 106 kts 66°
2026-04-15 16:30 67.48814 -146.28282 2239 ft 106 kts 59°
2026-04-15 16:31 67.49216 -146.26691 2275 ft 106 kts 48°
2026-04-15 16:31 67.49720 -146.25299 2373 ft 104 kts 46°
2026-04-15 16:31 67.50220 -146.23910 2414 ft 105 kts 41°
2026-04-15 16:31 67.50779 -146.22711 2486 ft 104 kts 34°
2026-04-15 16:32 67.51380 -146.21667 2572 ft 104 kts 33°
2026-04-15 16:32 67.51967 -146.20635 2703 ft 103 kts 33°
2026-04-15 16:32 67.52569 -146.19595 2722 ft 106 kts 32°
2026-04-15 16:32 67.53200 -146.18768 2915 ft 97 kts 25°
2026-04-15 16:33 67.53828 -146.18055 3004 ft 101 kts 24°
2026-04-15 16:33 67.54476 -146.17289 3090 ft 102 kts 27°
2026-04-15 16:33 67.55121 -146.16479 3140 ft 105 kts 26°
2026-04-15 16:33 67.55784 -146.15716 2691 ft 101 kts 23°
2026-04-15 16:34 67.56409 -146.15011 2408 ft 97 kts 22°
2026-04-15 16:34 67.56822 -146.14544 2276 ft 97 kts 22°
2026-04-15 16:34 67.57435 -146.13843 2197 ft 97 kts 23°
2026-04-15 16:34 67.58276 -146.12776 2311 ft 101 kts 39°
2026-04-15 16:35 67.58846 -146.11527 2265 ft 111 kts 37°
2026-04-15 16:35 67.59510 -146.10504 2218 ft 113 kts 23°
2026-04-15 16:35 67.60244 -146.09818 2160 ft 110 kts 13°
2026-04-15 16:35 67.60986 -146.09376 2144 ft 107 kts 12°
2026-04-15 16:36 67.61709 -146.08818 2128 ft 115 kts 22°
2026-04-15 16:36 67.62205 -146.08222 2109 ft 121 kts 26°
2026-04-15 16:36 67.62958 -146.07278 2224 ft 119 kts 24°
2026-04-15 16:36 67.63978 -146.06265 2449 ft 117 kts 16°
2026-04-15 16:37 67.64764 -146.05675 2571 ft 119 kts 18°
2026-04-15 16:37 67.65546 -146.05046 2650 ft 116 kts 17°
2026-04-15 16:37 67.66086 -146.04917 2627 ft 121 kts 355°
2026-04-15 16:37 67.66907 -146.05646 2494 ft 126 kts 341°
2026-04-15 16:38 67.67689 -146.06466 2601 ft 118 kts 337°
2026-04-15 16:38 67.68426 -146.07407 2605 ft 119 kts 337°
2026-04-15 16:38 67.69180 -146.08293 2616 ft 117 kts 343°
2026-04-15 16:38 67.70203 -146.09404 2536 ft 123 kts 335°
2026-04-15 16:39 67.70969 -146.10287 2578 ft 117 kts 341°
2026-04-15 16:39 67.71470 -146.10861 2638 ft 116 kts 337°
2026-04-15 16:39 67.72206 -146.11723 2682 ft 118 kts 339°
2026-04-15 16:39 67.72953 -146.12659 2762 ft 117 kts 335°
2026-04-15 16:40 67.73677 -146.13542 2680 ft 117 kts 339°
2026-04-15 16:40 67.74444 -146.14359 2649 ft 120 kts 349°
2026-04-15 16:40 67.75293 -146.14276 2591 ft 122 kts
2026-04-15 16:40 67.76120 -146.14140 2633 ft 115 kts
2026-04-15 16:41 67.76919 -146.13895 2665 ft 116 kts
2026-04-15 16:41 67.77707 -146.13590 2744 ft 113 kts
2026-04-15 16:41 67.78474 -146.13278 2785 ft 114 kts
2026-04-15 16:41 67.79265 -146.12976 2810 ft 115 kts
2026-04-15 16:42 67.80054 -146.12662 2861 ft 114 kts
2026-04-15 16:42 67.80833 -146.12357 2889 ft 115 kts
2026-04-15 16:42 67.81624 -146.12058 2904 ft 114 kts
2026-04-15 16:42 67.82405 -146.11783 2931 ft 113 kts
2026-04-15 16:43 67.83190 -146.11493 2924 ft 115 kts
2026-04-15 16:43 67.83986 -146.11175 2905 ft 115 kts
2026-04-15 16:43 67.84710 -146.10696 2798 ft 111 kts 39°
2026-04-15 16:43 67.85285 -146.09130 2645 ft 122 kts 42°
2026-04-15 16:44 67.85889 -146.07634 2658 ft 117 kts 43°
2026-04-15 16:44 67.86490 -146.06278 2694 ft 113 kts 38°
2026-04-15 16:44 67.87138 -146.04939 2633 ft 118 kts 37°
2026-04-15 16:44 67.87797 -146.03647 2625 ft 118 kts 34°
2026-04-15 16:45 67.88548 -146.02796 2410 ft 110 kts 15°
2026-04-15 16:45 67.89247 -146.02288 2328 ft 107 kts 17°
2026-04-15 16:45 67.89968 -146.01660 2343 ft 112 kts 20°
2026-04-15 16:45 67.90724 -146.00981 2386 ft 118 kts 20°
2026-04-15 16:46 67.91521 -146.00294 2365 ft 124 kts 15°
2026-04-15 16:46 67.92354 -145.99867 2385 ft 120 kts
2026-04-15 16:46 67.93198 -145.99990 2354 ft 118 kts 354°
2026-04-15 16:46 67.93986 -146.00396 2451 ft 116 kts 346°
2026-04-15 16:47 67.94779 -146.01003 2437 ft 117 kts 347°
2026-04-15 16:47 67.95478 -146.00433 2454 ft 112 kts 38°
2026-04-15 16:47 67.96126 -145.99252 2455 ft 110 kts 32°
2026-04-15 16:47 67.96815 -145.98364 2448 ft 111 kts 20°
2026-04-15 16:48 67.97546 -145.97674 2452 ft 110 kts 20°
2026-04-15 16:48 67.98251 -145.96941 2496 ft 108 kts 22°
2026-04-15 16:48 67.98882 -145.96001 2568 ft 105 kts 39°
2026-04-15 16:48 67.99457 -145.94721 2524 ft 111 kts 37°
2026-04-15 16:49 68.00097 -145.93695 2568 ft 106 kts 10°
2026-04-15 16:49 68.00806 -145.93756 2698 ft 95 kts
2026-04-15 16:49 68.01441 -145.93091 2708 ft 104 kts 32°
2026-04-15 16:49 68.02033 -145.91917 2743 ft 102 kts 42°
2026-04-15 16:50 68.02533 -145.90519 2746 ft 107 kts 46°
2026-04-15 16:50 68.03034 -145.88987 2691 ft 111 kts 48°
2026-04-15 16:50 68.03569 -145.87479 2609 ft 114 kts 45°
2026-04-15 16:50 68.04080 -145.85917 2539 ft 114 kts 53°
2026-04-15 16:51 68.04412 -145.84100 2550 ft 106 kts 75°
2026-04-15 16:51 68.04596 -145.82233 2588 ft 101 kts 72°
2026-04-15 16:51 68.04776 -145.80413 2609 ft 100 kts 73°
2026-04-15 16:51 68.05163 -145.78974 2614 ft 100 kts 31°
2026-04-15 16:52 68.05771 -145.78196 2673 ft 97 kts 25°
2026-04-15 16:52 68.06382 -145.77370 2669 ft 100 kts 29°
2026-04-15 16:52 68.06908 -145.76159 2672 ft 101 kts 49°
2026-04-15 16:52 68.07288 -145.74564 2632 ft 103 kts 62°
2026-04-15 16:53 68.07530 -145.72767 2601 ft 103 kts 74°
2026-04-15 16:53 68.07657 -145.70876 2519 ft 105 kts 79°
2026-04-15 16:53 68.07826 -145.69118 2404 ft 90 kts 74°
2026-04-15 16:53 68.08045 -145.67550 2356 ft 95 kts 65°
2026-04-15 16:54 68.08339 -145.65947 2392 ft 96 kts 60°
2026-04-15 16:54 68.08707 -145.64431 2473 ft 100 kts 47°
2026-04-15 16:54 68.09229 -145.63160 2485 ft 104 kts 38°
2026-04-15 16:54 68.09773 -145.61887 2489 ft 106 kts 42°
2026-04-15 16:55 68.10342 -145.60613 2488 ft 107 kts 40°
2026-04-15 16:55 68.10934 -145.59374 2279 ft 105 kts 39°
2026-04-15 16:55 68.11439 -145.58020 2127 ft 105 kts 47°
2026-04-15 16:55 68.11892 -145.56524 2217 ft 101 kts 53°
2026-04-15 16:56 68.12259 -145.55001 2356 ft 98 kts 55°
2026-04-15 16:56 68.12647 -145.53504 2568 ft 88 kts 33°
2026-04-15 16:56 68.12885 -145.54515 2435 ft 115 kts 224°
2026-04-15 16:56 68.12251 -145.55851 2232 ft 115 kts 220°
2026-04-15 16:57 68.11706 -145.57307 2132 ft 112 kts 223°
2026-04-15 16:57 68.11144 -145.58822 2158 ft 116 kts 231°
2026-04-15 16:57 68.10623 -145.60384 2343 ft 106 kts 216°
2026-04-15 16:57 68.09938 -145.60807 2556 ft 99 kts 207°
2026-04-15 16:58 68.09899 -145.62136 2508 ft 82 kts 347°
2026-04-15 16:58 68.10301 -145.61297 2373 ft 76 kts 52°
2026-04-15 16:58 68.10653 -145.60189 2324 ft 83 kts 48°
2026-04-15 16:58 68.10982 -145.59240 2241 ft 50 kts 44°
2026-04-15 16:59 68.11228 -145.58592 2150 ft 55 kts 45°
2026-04-15 16:59 68.11489 -145.57868 2106 ft 48 kts 46°
2026-04-15 16:59 68.11649 -145.57452 2104 ft 18 kts 46°
2026-04-15 16:59 68.11708 -145.57289 2102 ft 8 kts 45°
2026-04-15 17:00 68.11734 -145.57217 2103 ft 3 kts 46°
2026-04-15 17:00 68.11766 -145.57126 2102 ft 12 kts 47°
2026-04-15 17:00 68.11817 -145.56981 2103 ft 8 kts 47°
2026-04-15 17:00 68.11841 -145.56909 2103 ft 7 kts 47°
2026-04-15 17:01 68.11935 -145.56843 2102 ft 18 kts 356°
2026-04-15 17:01 68.12034 -145.56929 2102 ft 8 kts 337°
2026-04-15 17:01 68.12038 -145.56954 2102 ft 0 kts 129°
2026-04-15 17:01 68.12037 -145.56949 2102 ft 0 kts 97°